Location: Firdgum
(53.2488°N, 5.5615°E)
Time: 23:13:42
(UTC+00:00)

Cosmos 2056 Rocket - Pass Details

Date: 08 December 2019
Orbit: 741 x 801 km, 74.0° (Epoch: 22 January)

Event Time Altitude Azimuth Distance (km) Brightness Sun altitude
Exits shadow 05:13:15 - 211° (SSW) 2,774 6.2 -20.4°
Reaches altitude 10° 05:14:35 10° 212° (SSW) 2,251 5.7 -20.2°
Maximum altitude 05:19:40 74° 298° (WNW) 779 3.3 -19.4°
Drops below altitude 10° 05:24:49 10° 24° (NNE) 2,275 6.1 -18.7°
Sets 05:27:12 0° 26° (NNE) 3,209 6.9 -18.3°
